SCP
0 0 0 0 0 0 0 0 0 0 0 0 0 0 0 0 0 0 0 0 0 0 0 0 0 0 0 0 0 0 0 0 0 0 0 0 0 0 0 0 0 0 0 0
0 0 0 0 0 0 0 0 0 0 0 0 0 0 0 0 0 0 0 0 0 0 0 0 0 0 0 0 0 0 0 0 0 0 0 0 0 0 0 0 0 0 0 0
0 0 0 0 0 0 0 0 0 0 0 0 0 0 0 0 0 0 0 0 0 0 0 0 0 0 0 0 0 0 0 0 0 0 0 0 0 0 0 0 0 0 0 0
0 0 0 0 0 0 0 0 0 0 0 0 0 0 0 0 0 0 0 0 0 0 0 0 0 0 0 0 0 0 0 0 0 0 0 0 0 0 0 0 0 0 0 0
0 0 0 0 0 0 0 0 0 0 0 0 0 0 0 0 0 0 0 0 0 0 0 0 0 0 0 0 0 0 0 0 0 0 0 0 0 0 0 0 0 0 0 0
0 0 0 0 0 0 0 0 0 0 0 0 0 0 0 0 0 0 0 0 0 0 0 0 0 0 0 0 0 0 0 0 0 0 0 0 0 0 0 0 0 0 0 0
0 0 0 0 0 0 0 0 0 0 0 0 0 0 0 0 0 0 0 0 0 0 0 0 0 0 0 0 0 0 0 0 0 0 0 0 0 0 0 0 0 0 0 0
0 0 0 0 0 0 0 0 0 0 0 0 0 0 0 0 0 0 0 0 0 0 0 0 0 0 0 0 0 0 0 0 0 0 0 0 0 0 0 0 0 0 0 0
0 0 0 0 0 0 0 0 0 0 0 0 0 0 0 0 0 0 0 0 0 0 0 0 0 0 0 0 0 0 0 0 0 0 0 0 0 0 0 0 0 0 0 0
0 0 0 0 0 0 0 0 0 0 0 0 0 0 0 0 0 0 0 0 0 0 0 0 0 0 0 0 0 0 0 0 0 0 0 0 0 0 0 0 0 0 0 0
0 0 0 0 0 0 0 0 0 0 0 0 0 0 0 0 0 0 0 0 0 0 0 0 0 0 0 0 0 0 0 0 0 0 0 0 0 0 0 0 0 0 0 0
0 0 0 0 0 0 0 0 0 0 0 0 0 0 0 0 0 0 0 0 0 0 0 0 0 0 0 0 0 0 0 0 0 0 0 0 0 0 0 0 0 0 0 0
0 0 0 0 0 0 0 0 0 0 0 0 0 0 0 0 0 0 0 0 0 0 0 0 0 0 0 0 0 0 0 0 0 0 0 0 0 0 0 0 0 0 0 0
0 0 0 0 0 0 0 0 -0 0 0 0 0 0 0 0 0 0 0 0 0 0 0 0 0 0 0 0 0 0 0 0 0 0 0 0 0 0 0 0 0 0 0 0
0 0 0 0 0 0 0 -0 -0 0 0 0 0 0 0 0 0 0 0 0 0 0 0 0 0 0 0 0 0 0 0 0 0 0 0 0 0 0 0 0 0 0 0 0
0 0 0 0 0 0 0 -0 0 0 0 0 0 0 0 0 0 0 0 0 0 0 0 0 0 0 0 0 0 0 0 0 0 0 0 0 0 0 0 0 0 0 0 0
0 0 0 0 0 0 0 0 0 0 0 0 0 0 0 0 0 0 0 0 0 0 0 0 0 0 0 0 0 0 0 0 0 0 0 0 0 0 0 0 0 0 0 0
0 0 0 0 0 0 0 0 0 0 0 0 0 0 0 0 0 0 0 0 0 0 0 0 0 0 0 0 0 0 0 0 0 0 0 0 0 0 0 0 0 0 0 0
0 0 0 0 0 0 0 0 0 0 -0 0 0 0 0 0 0 0 0 0 0 0 0 0 0 0 0 0 0 0 0 0 0 0 0 0 0 0 0 0 0 0 0 0
0 0 0 0 0 0 0 0 0 0 0 0 0 0 0 0 0 0 0 0 0 0 0 0 0 0 0 0 0 0 0 0 0 0 0 0 0 0 0 0 0 0 0 0
0 0 0 0 0 0 0 -0 0 0 0 0 0 0 0 0 0 0 0 0 0 0 0 0 0 0 0 0 0 0 0 0 0 0 0 0 0 0 0 0 0 0 0 0
0 0 0 0 0 0 0 0 0 0 0 0 0 0 0 0 0 0 0 0 0 0 0 0 0 0 0 0 0 0 0 0 0 0 0 0 0 0 0 0 0 0 0 0
0 0 0 0 0 0 0 0 0 0 0 0 0 0 0 0 0 0 0 0 0 0 0 0 0 0 0 0 0 0 0 0 0 0 0 0 0 0 0 0 0 0 0 0
0 0 0 0 0 0 0 0 0 0 0 0 0 0 0 0 0 0 0 0 0 0 0 0 0 0 0 0 0 0 0 0 0 0 0 0 0 0 0 0 0 0 0 0
0 0 0 0 0 0 0 0 0 0 0 0 0 0 0 0 0 0 0 0 0 0 0 0 0 0 0 0 0 0 0 0 0 0 0 0 0 0 0 0 0 0 0 0
0 0 0 0 0 0 0 0 0 0 0 0 0 0 0 0 0 0 0 0 0 0 0 0 0 0 0 0 0 0 0 0 0 0 0 0 0 0 0 0 0 0 0 0
0 0 0 0 0 0 0 0 0 0 0 0 0 0 0 0 0 0 0 0 0 0 0 0 0 0 0 0 0 0 0 0 0 0 0 0 0 0 0 0 0 0 0 0
Wind_Speed
7 6 4 5 7 7 7 8 8 7 7 7 4 2 1 1 2 3 3 3 3 3 2 2 2 2 3 4 5 6 6 6 6 6 6 5 5 5 4 4 5 5 4 4
6 6 4 6 7 8 9 8 8 6 8 5 2 1 1 2 3 3 3 2 2 2 2 2 2 2 2 3 4 6 6 6 5 5 6 5 5 5 4 4 4 4 4 4
4 3 2 5 6 6 5 5 6 9 8 2 1 3 4 4 4 3 3 3 3 2 2 2 2 2 2 3 4 5 5 5 5 5 5 5 5 5 5 4 4 3 3 3
2 0 5 5 1 2 3 3 3 4 3 3 3 2 1 1 3 2 1 1 1 2 2 1 1 1 2 3 4 5 5 5 5 5 5 4 4 4 4 3 3 3 3 4
2 2 4 4 4 2 2 4 2 3 3 1 1 2 2 2 1 1 1 1 2 2 2 2 1 2 3 3 3 4 4 4 4 5 5 5 4 4 3 3 3 3 3 3
2 2 3 3 6 6 0 3 4 2 1 1 2 1 2 1 2 3 2 2 2 2 3 3 2 3 4 3 3 3 3 3 4 4 5 5 4 3 3 3 2 2 2 2
1 1 3 5 8 4 2 4 6 3 1 1 2 2 2 3 4 4 4 3 4 4 3 2 2 3 4 3 2 2 3 3 3 3 3 3 3 3 2 2 2 2 1 2
1 1 4 6 5 2 3 5 5 4 2 3 4 5 5 5 5 5 5 5 5 5 4 3 3 4 4 2 1 2 3 3 3 2 2 3 3 2 2 3 2 2 1 2
1 1 2 4 3 4 4 4 4 3 3 4 5 5 6 6 5 5 5 5 4 5 5 5 4 4 4 2 2 3 3 3 2 2 2 2 3 2 2 2 2 2 2 2
1 2 3 5 5 6 5 4 4 4 4 5 6 6 6 5 5 6 6 5 5 6 6 5 4 4 3 2 2 4 4 3 2 2 2 1 1 1 2 2 2 2 2 2
1 2 3 5 6 6 6 6 6 6 6 6 7 6 6 5 5 5 5 4 4 5 5 5 5 5 4 3 3 4 3 3 2 2 1 1 1 0 1 2 3 3 3 3
1 2 2 3 5 5 6 6 5 6 7 6 6 6 6 5 4 4 4 4 5 5 5 4 4 4 4 3 3 3 2 2 1 1 1 1 0 1 2 2 2 3 4 4
2 3 2 2 4 6 5 5 6 6 6 6 6 6 6 5 4 4 5 4 4 4 3 3 3 4 4 3 3 3 2 1 1 1 0 0 0 0 1 3 2 3 3 4
3 3 4 5 5 6 6 6 6 7 7 6 5 5 5 5 5 5 4 4 3 3 3 3 3 3 3 2 3 2 1 1 1 0 0 0 1 1 1 2 2 2 3 5
5 4 3 3 5 6 6 6 7 7 6 6 5 5 5 5 5 4 4 4 4 4 4 3 3 4 4 3 2 2 1 1 1 1 1 1 1 1 1 2 2 2 2 3
4 4 5 5 5 5 6 6 6 5 5 5 5 5 4 4 4 4 4 4 4 4 4 4 4 4 3 3 2 2 1 2 1 1 1 1 1 1 1 2 2 2 3 3
3 4 4 4 4 4 4 4 3 3 3 4 3 3 4 4 4 4 4 4 3 3 3 3 3 3 3 2 2 1 1 2 2 1 1 1 1 1 2 2 2 3 3 4
2 2 1 1 1 2 3 4 3 3 3 2 3 3 3 3 3 3 3 3 3 4 4 3 3 3 3 3 2 1 1 1 1 1 2 1 2 2 2 2 3 3 3 4
4 4 4 3 2 1 2 2 3 3 3 2 2 2 2 2 2 2 3 3 3 3 4 4 5 3 3 3 3 1 1 2 2 2 2 3 3 2 2 2 3 3 3 3
5 4 4 4 4 3 2 2 2 2 2 2 2 2 2 3 2 2 2 2 2 2 3 4 3 3 3 3 3 1 1 2 2 2 2 2 2 3 3 3 3 3 3 3
5 5 4 4 4 4 3 2 2 2 3 2 2 2 2 3 2 2 2 3 3 3 3 4 3 2 2 3 3 1 1 2 2 2 2 2 3 3 3 3 3 3 3 4
4 4 4 4 3 4 4 3 2 2 2 2 2 2 2 3 3 2 2 2 3 5 3 2 2 4 4 4 2 2 2 2 2 2 2 3 3 3 3 3 3 4 4 4
4 3 3 3 3 3 4 3 3 2 2 3 3 3 2 2 2 2 3 3 3 5 3 2 5 6 6 3 2 2 2 2 2 2 3 3 3 3 4 4 4 4 4 4
4 4 4 3 3 3 3 3 3 3 3 3 3 3 2 2 2 2 2 5 6 6 3 5 7 7 5 2 2 2 2 3 3 3 3 3 3 3 3 4 4 4 4 5
4 3 3 3 3 2 3 3 3 3 3 3 3 3 2 2 2 3 3 3 6 6 3 5 7 7 3 2 2 2 3 3 3 3 3 3 3 3 4 4 4 4 4 4
4 3 3 3 3 3 3 2 2 3 3 3 3 3 3 2 3 3 3 3 4 5 3 3 3 4 2 2 3 3 3 3 4 3 3 3 4 4 4 4 5 4 4 4
4 3 3 3 3 3 2 3 3 3 3 3 4 4 3 3 3 3 3 3 3 3 3 3 3 3 3 3 3 3 3 3 3 3 3 3 3 3 4 4 4 4 4 4
Wind_Direction
260 266 247 254 250 232 221 213 212 232 238 258 249 218 188 136 115 106 112 119 130 132 130 127 121 137 153 157 157 154 155 161 171 168 160 157 157 162 164 168 176 179 180 187
269 260 248 269 261 239 235 232 230 237 254 256 245 138 138 169 167 158 149 145 127 118 121 129 135 135 134 154 159 154 158 167 164 155 154 159 161 160 160 167 171 173 185 190
265 272 299 269 249 227 222 219 212 229 240 233 202 190 197 193 185 184 170 157 150 146 142 150 157 147 153 157 149 149 154 156 154 155 159 163 160 158 164 170 170 179 194 195
243 68 223 243 277 213 218 239 232 239 241 216 217 211 198 159 163 168 152 140 141 136 128 119 118 117 121 125 137 145 147 147 149 151 155 155 156 163 168 170 175 186 198 203
185 207 270 307 337 340 241 271 287 251 264 286 113 68 25 25 95 147 163 163 160 152 136 120 120 127 114 108 124 136 146 152 158 158 156 155 161 169 169 166 177 190 196 198
175 181 234 296 318 320 177 284 334 335 249 170 108 172 256 359 66 74 73 88 96 100 101 100 103 118 115 116 123 145 158 156 153 154 157 163 169 169 166 167 181 185 207 213
204 218 275 314 324 355 122 280 327 329 291 175 197 193 133 94 76 76 78 79 84 83 78 74 92 108 108 104 119 144 135 126 125 134 148 154 153 155 156 162 161 173 212 246
154 174 279 334 1 15 293 318 336 356 26 66 67 81 90 89 83 77 73 70 75 74 60 43 57 90 91 81 76 92 108 115 118 123 133 134 139 148 157 159 161 185 207 262
161 205 317 350 359 339 344 347 354 17 50 85 87 83 82 80 77 72 69 66 69 76 64 46 47 74 80 55 62 87 96 100 101 99 99 120 141 154 158 161 178 209 217 243
35 334 355 6 10 8 12 17 17 34 56 78 82 80 79 75 70 65 62 63 67 72 65 49 42 53 60 51 70 90 89 83 87 92 83 72 108 156 170 187 200 222 231 246
354 331 357 7 7 10 23 31 39 44 50 64 78 75 77 76 69 65 61 58 64 71 68 55 46 46 44 49 66 77 78 79 78 83 100 84 60 198 214 221 216 223 227 232
299 320 334 335 352 13 34 31 39 57 55 49 64 76 73 69 65 61 58 56 55 56 56 49 45 40 37 42 66 86 79 67 68 75 77 80 55 1 346 287 291 283 274 273
320 344 17 17 20 28 41 41 49 58 63 59 55 63 68 65 59 55 52 54 54 50 46 43 41 31 23 27 51 69 74 62 53 60 56 9 322 308 322 332 319 299 290 293
15 34 43 30 29 31 45 53 59 59 57 59 59 58 61 59 53 49 41 38 43 46 41 41 42 21 7 22 45 50 48 35 31 40 300 280 278 278 274 286 307 311 307 303
18 35 58 51 42 39 42 52 57 52 49 46 48 51 53 52 43 32 26 30 37 40 32 33 33 8 3 21 39 33 23 2 17 17 345 315 305 300 292 286 289 296 306 309
14 39 52 53 44 40 41 45 50 41 38 39 39 37 39 45 40 29 22 26 36 28 14 15 9 354 3 18 26 23 12 6 4 357 342 330 317 306 302 296 295 296 297 300
37 31 37 39 33 33 34 37 43 33 28 29 26 25 32 37 34 24 14 16 26 16 7 1 346 346 356 4 9 3 355 348 357 354 320 299 292 287 286 287 291 291 289 291
26 21 30 54 28 21 15 20 29 26 14 359 10 26 30 29 15 360 355 2 16 11 357 342 341 349 353 352 352 348 342 332 327 316 309 301 295 288 287 285 288 291 295 298
27 31 27 22 18 28 20 12 10 8 359 2 15 12 6 359 347 343 348 0 4 349 335 339 352 0 347 341 343 332 326 321 316 308 301 307 313 305 295 289 288 289 291 295
20 19 21 18 18 23 13 3 7 4 353 358 10 7 358 344 338 339 347 341 322 305 310 329 338 333 326 324 336 317 309 304 303 305 307 304 300 297 295 294 293 291 292 294
5 6 9 10 6 4 356 347 355 347 343 353 359 340 329 328 332 334 335 323 319 324 326 332 333 321 318 321 331 322 315 309 305 301 300 297 295 295 296 297 296 295 295 298
352 354 353 352 355 349 344 343 342 339 344 351 348 339 335 332 331 324 298 285 304 326 331 318 312 323 331 333 334 326 317 309 304 301 298 297 296 296 294 292 290 291 293 293
335 333 334 336 333 326 333 340 339 338 334 329 324 317 308 301 300 299 304 306 306 319 321 306 316 325 334 343 331 321 314 308 304 301 296 292 289 288 288 289 289 290 291 290
329 329 325 322 329 343 338 330 331 331 320 311 307 302 298 303 301 283 279 307 317 318 310 311 320 324 332 331 313 307 304 300 296 293 292 292 291 290 289 289 290 289 288 289
321 319 319 324 331 326 317 320 326 325 322 316 312 311 303 288 285 298 302 303 312 317 311 314 318 321 322 300 294 291 291 290 292 295 292 293 291 291 289 288 286 286 286 284
319 318 313 312 310 311 312 314 313 313 317 318 317 312 308 302 296 297 298 298 301 311 311 300 299 306 299 292 289 288 286 295 303 300 292 290 289 289 289 288 288 287 287 286
320 320 321 321 320 316 309 304 305 308 308 304 304 306 308 309 307 304 301 299 299 299 295 292 289 286 289 290 290 288 285 284 285 287 287 284 281 281 283 282 283 284 287 289